This demonstration page uses our WeatherBlox Daily Observations layout. Learn more.

Left ArrowRight Arrow

Hourly Observations for April 14, 2021

Temp ( °F °C ) Dew Point ( °F °C ) Humidity (%) Winds ( mph kmh ) Pressure ( in mb ) Visibility ( mi km ) Precip ( " mm )
12:59 am 00:59 Partly Cloudy 47 8.3 42 5.6 83 83 ESE 3 6 30.14 1021 10 16 0.00 0.00
1:59 am 01:59 Partly Cloudy 47 8.3 42 5.6 83 83 Calm 30.12 1020 10 16 0.00 0.00
2:59 am 02:59 Partly Cloudy 45 7.2 41 5 86 86 Calm 30.11 1020 10 16 0.00 0.00
3:59 am 03:59 Partly Cloudy 46 7.8 42 5.6 86 86 WSW 3 6 30.12 1020 10 16 0.00 0.00
4:59 am 04:59 Partly Cloudy 48 8.9 44 6.7 86 86 WSW 6 9 30.13 1020 10 16 0.00 0.00
5:59 am 05:59 Partly Cloudy 48 8.9 43 6.1 83 83 SW 3 6 30.14 1021 10 16 0.00 0.00
6:59 am 06:59 Sunny 49 9.4 44 6.7 83 83 SW 3 6 30.15 1021 10 16 0.00 0.00
7:59 am 07:59 Sunny 54 12.2 48 8.9 80 80 S 3 6 30.15 1021 10 16 0.00 0.00
8:59 am 08:59 Sunny 59 15 49 9.4 69 69 SSW 6 9 30.14 1021 10 16 0.00 0.00
9:59 am 09:59 Partly Cloudy 63 17.2 48 8.9 58 58 SSW 8 13 30.13 1020 10 16 0.00 0.00
10:59 am 10:59 Mostly Cloudy 66 18.9 50 10 56 56 S 8 13 30.11 1020 10 16 0.00 0.00
11:59 am 11:59 Mostly Cloudy 68 20 49 9.4 51 51 S 8 13 30.09 1019 10 16 0.00 0.00
12:59 pm 12:59 Mostly Cloudy 71 21.7 49 9.4 46 46 SSE 8 13 30.07 1018 10 16 0.00 0.00
1:59 pm 13:59 Mostly Cloudy 71 21.7 50 10 47 47 SSE 8 13 30.04 1017 10 16 0.00 0.00
2:59 pm 14:59 Cloudy 71 21.7 50 10 47 47 VRB 5 7 30.01 1016 10 16 0.00 0.00
3:59 pm 15:59 Mostly Cloudy 73 22.8 50 10 44 44 SSE 9 15 29.97 1015 10 16 0.00 0.00
4:59 pm 16:59 Partly Cloudy 68 20 50 10 53 53 SE 10 17 29.96 1015 10 16 0.00 0.00
5:59 pm 17:59 Mostly Cloudy 67 19.4 49 9.4 53 53 SE 13 20 29.95 1014 10 16 0.00 0.00
6:59 pm 18:59 Mostly Cloudy 66 18.9 49 9.4 54 54 SE 8 13 29.93 1013 10 16 0.00 0.00
7:59 pm 19:59 Mostly Cloudy 63 17.2 49 9.4 60 60 SE 8 13 29.92 1013 10 16 0.00 0.00
8:59 pm 20:59 Cloudy with Light Rain 63 17.2 52 11.1 68 68 SSE 6 9 29.93 1014 9 14 0.00 0.00
9:10 pm 21:10 Cloudy with Thunderstorms 62 16.7 53 11.7 73 73 SSE 5 7 29.93 1014 7 11 0.02 0.51
9:30 pm 21:30 Cloudy with Strong Thunderstorms 59 15 54 12.2 83 83 SSW 8 13 29.97 1015 1 2 0.29 7.37
9:43 pm 21:43 Cloudy with Thunderstorms 58 14.4 55 12.8 90 90 SE 12 19 29.92 1013 2 3 0.45 11.43
9:51 pm 21:51 Cloudy with Thunderstorms 58 14.4 55 12.8 90 90 SSE 10 17 29.90 1013 3 4 0.48 12.19
9:54 pm 21:54 Cloudy with Nearby Thunderstorms 59 15 55 13 88 88 SE 13 20 29.89 1012 3 5 0.48 12.19
10:59 pm 22:59 Cloudy with Light Rain 58 14.4 55 12.8 90 90 SSE 9 15 29.86 1011 6 10 0.03 0.76
11:23 pm 23:23 Cloudy with Thunderstorms 59 15 55 12.8 87 87 SSE 10 17 29.86 1011 4 6 0.03 0.76
11:59 pm 23:59 Cloudy with Strong Thunderstorms 59 15 56 13.3 90 90 S 9 15 29.87 1012 2 2 0.26 6.60

Powered by AerisWeather